Weather History for Cartersville, GA

Change the Weather History Date:

Monday, January 21, 2013

  Actual Average Record
Temperature  
Mean Temperature 42 °F 41 °F  
Max Temperature 55 °F 52 °F 64 °F (2005)
Min Temperature 28 °F 31 °F 12 °F (2008)
Degree Days  
Heating Degree Days 24 24  
Month to date heating degree days 504  
Since 1 July heating degree days 1806  
Moisture  
Dew Point 28 °F    
Average Humidity 67    
Maximum Humidity 100    
Minimum Humidity 35    
Precipitation  
Precipitation 0.00 in 0.16 in 2.86 in (1990)
Month to date precipitation 2.86  
Year to date precipitation 2.86  
Snow  
Snow 0.00 in - - ()
Month to date snowfall  
Since 1 July snowfall  
Snow Depth -    
Sea Level Pressure  
Sea Level Pressure 30.15 in    
Wind  
Wind Speed 1 mph (North)    
Max Wind Speed 7 mph    
Max Gust Speed -    
Visibility 9 miles    
Events      
T = Trace of Precipitation, MM = Missing Value Source: NWS Daily Summary

Daily Weather History Graph

Daily Weather History Graph

Search for Another Location

Airport:

Trip Planner

Search our weather history database for the weather conditions in past years. The results will help you decide how hot, cold, wet, or windy it might be!

Date:

Astronomy

Jan. 21, 2013 Rise Set
Actual Time 7:42 AM EST 5:59 PM EST
Civil Twilight 7:15 AM EST 6:26 PM EST
Nautical Twilight 6:45 AM EST 6:56 PM EST
Astronomical Twilight 6:15 AM EST 7:26 PM EST
Moon 1:39 PM EST (1/21) 3:09 AM EST (1/21)
Length of Visible Light 11h 10m
Length of Day
10h 16m
Waxing Gibbous, 75% of the Moon is Illuminated
Jan 21
Waxing Gibbous
Jan 26
Full
Feb 3
Last Quarter
Feb 10
New
Feb 17
First Quarter

Hourly Weather History & Observations

Time (EST) Temp. Dew Point Humidity Pressure Visibility Wind Dir Wind Speed Gust Speed Precip Events Conditions
12:53 AM 33.1 °F 33.1 °F 100% 30.13 in 6.0 mi Calm Calm - N/A   Clear
1:53 AM 30.9 °F 30.9 °F 100% 30.13 in 6.0 mi Calm Calm - N/A   Clear
2:53 AM 30.9 °F 30.9 °F 100% 30.13 in 6.0 mi Calm Calm - N/A   Clear
3:53 AM 30.0 °F 30.0 °F 100% 30.12 in 6.0 mi Calm Calm - N/A   Clear
4:53 AM 28.9 °F 28.0 °F 96% 30.11 in 8.0 mi Calm Calm - N/A   Clear
5:53 AM 30.0 °F 28.0 °F 92% 30.12 in 9.0 mi Calm Calm - N/A   Clear
6:53 AM 28.9 °F 28.0 °F 96% 30.13 in 10.0 mi Calm Calm - N/A   Clear
7:53 AM 28.0 °F 27.0 °F 96% 30.14 in 8.0 mi Calm Calm - N/A   Clear
8:53 AM 32.0 °F 32.0 °F 100% 30.16 in 8.0 mi Calm Calm - N/A   Clear
9:53 AM 39.0 °F 35.1 °F 86% 30.17 in 10.0 mi Calm Calm - N/A   Clear
10:53 AM 46.0 °F 36.0 °F 68% 30.18 in 10.0 mi Calm Calm - N/A   Clear
11:53 AM 52.0 °F 33.1 °F 49% 30.16 in 10.0 mi Variable 3.5 mph - N/A   Clear
12:53 PM 54.0 °F 32.0 °F 43% 30.14 in 10.0 mi Variable 3.5 mph - N/A   Clear
1:53 PM 55.0 °F 30.9 °F 40% 30.12 in 10.0 mi Variable 3.5 mph - N/A   Clear
2:53 PM 55.0 °F 28.9 °F 37% 30.12 in 10.0 mi Variable 6.9 mph - N/A   Clear
3:53 PM 54.0 °F 27.0 °F 35% 30.12 in 10.0 mi Variable 4.6 mph - N/A   Clear
4:53 PM 51.1 °F 26.1 °F 38% 30.13 in 10.0 mi Calm Calm - N/A   Clear
5:53 PM 48.0 °F 23.0 °F 37% 30.16 in 10.0 mi Calm Calm - N/A   Clear
6:53 PM 44.1 °F 23.0 °F 43% 30.17 in 10.0 mi Calm Calm - N/A   Clear
7:53 PM 41.0 °F 21.0 °F 45% 30.18 in 10.0 mi Calm Calm - N/A   Clear
8:53 PM 39.9 °F 19.9 °F 45% 30.20 in 10.0 mi Calm Calm - N/A   Clear
9:53 PM 36.0 °F 19.9 °F 52% 30.21 in 10.0 mi Calm Calm - N/A   Clear
10:53 PM 34.0 °F 21.0 °F 59% 30.22 in 10.0 mi Calm Calm - N/A   Clear
11:53 PM 34.0 °F 19.9 °F 56% 30.20 in 10.0 mi Calm Calm - N/A   Clear